Flag for Norway Weather past 2 weeks in Langevåg, Norway

Now
50 °F

Scattered showers. Broken clouds.


Feels Like: 43 °F
Forecast: 50 / 53 °F
Wind: 22 mph from Southwest

Location: Alesund / Vigra

Current Time: Oct 24, 2014 at 5:58:54 PM

Latest Report: Oct 24, 2014 at 5:20 PM


Visibility: N/A

Pressure: 29.62 "Hg

Humidity: 76%

Dew point: 43 °F

Location of LangevågLocation

Historic Weather in Langevåg — Graph

°F

Langevåg temperature yesterday

Maximum temperature yesterday: 55 °F (at 8:20 AM)
Minimum temperature yesterday: 50 °F (at 12:20 AM)
Average temperature yesterday: 53 °F

Past Weeks' High & Low Weather Summary

 TemperatureHumidityPressure
High61 °F (Oct 19, 12:50 PM)100% (Oct 12, 9:50 PM)30.01 "Hg (Oct 12, 9:50 PM)
Low36 °F (Oct 16, 1:20 AM)47% (Oct 17, 1:20 PM)29.18 "Hg (Oct 19, 8:50 PM)
Average50 °F78%29.67 "Hg
* Reported Oct 9 4:20 PM — Oct 24 4:50 PM, Langevåg, Weather by CustomWeather, © 2014

Note: Actual official high and low records may vary slightly from our data, if they occured in-between our weather recording intervals... More about our weather records

Advertising

Langevåg weather history for previous 24 hours

 ConditionsComfort  
Time TempWeatherWind HumidityBarometerVisibility
4:50 PM
Oct 24
52 °FScattered showers. Broken clouds.18 mph72%29.62 "HgN/A
4:20 PM52 °FDrizzle. Partly sunny.16 mph72%29.62 "HgN/A
3:50 PM52 °FDrizzle. Partly sunny.21 mph77%29.62 "HgN/A
2:50 PM52 °FScattered showers. Broken clouds.16 mph77%29.59 "HgN/A
2:20 PM52 °FDrizzle. Broken clouds.18 mph77%29.59 "HgN/A
1:50 PM54 °FScattered showers. Partly sunny.17 mph67%29.59 "HgN/A
1:20 PM54 °FScattered showers. Partly sunny.18 mph72%29.59 "HgN/A
12:50 PM54 °FScattered showers. Partly sunny.21 mph72%29.59 "HgN/A
12:20 PM54 °FScattered showers. Scattered clouds.22 mph72%29.59 "HgN/A
11:50 AM54 °FScattered showers. Scattered clouds.21 mph72%29.59 "HgN/A
11:20 AM52 °FScattered clouds.17 mph82%29.59 "HgN/A
10:50 AM52 °FScattered clouds.20 mph82%29.56 "HgN/A
10:20 AM52 °FLight rain. Broken clouds.23 mph82%29.56 "HgN/A
9:50 AM54 °FScattered showers. Broken clouds.20 mph77%29.56 "HgN/A
9:20 AM54 °FPartly cloudy.23 mph77%29.56 "HgN/A
8:50 AM54 °FPassing clouds.23 mph77%29.53 "HgN/A
8:20 AM54 °FPassing clouds.18 mph82%29.53 "HgN/A
7:50 AM55 °FPassing clouds.21 mph77%29.50 "HgN/A
7:20 AM54 °FPartly cloudy.17 mph88%29.50 "HgN/A
6:50 AM54 °FLight rain. Passing clouds.10 mph88%29.47 "HgN/A
6:20 AM52 °FLight rain. Partly cloudy.12 mph94%29.47 "HgN/A
5:50 AM52 °FLight rain. Partly cloudy.10 mph88%29.47 "HgN/A
5:20 AM52 °FDrizzle. Mostly cloudy.10 mph88%29.47 "HgN/A
4:50 AM54 °FLight rain. Passing clouds.10 mph82%29.47 "HgN/A
4:20 AM54 °FDrizzle. Mostly cloudy.14 mph82%29.47 "HgN/A
3:50 AM52 °FPassing clouds.14 mph82%29.47 "HgN/A
3:20 AM52 °FLight rain. Passing clouds.15 mph82%29.47 "HgN/A
2:50 AM52 °FLight rain. Fog.15 mph88%29.50 "HgN/A
2:20 AM52 °FLight rain. Fog.13 mph88%29.50 "HgN/A
1:50 AM52 °FLight rain. Passing clouds.13 mph88%29.50 "HgN/A
1:20 AM52 °FPassing clouds.9 mph88%29.53 "HgN/A
12:50 AM52 °FPassing clouds.10 mph94%29.53 "HgN/A
12:20 AM52 °FLight rain. Partly cloudy.9 mph94%29.56 "HgN/A
11:50 PM
Oct 23
52 °FLight rain. Partly cloudy.10 mph94%29.56 "HgN/A
11:20 PM52 °FLight rain. Partly cloudy.9 mph94%29.56 "HgN/A
10:50 PM52 °FLight rain. Partly cloudy.8 mph94%29.56 "HgN/A
10:20 PM54 °FPartly cloudy.10 mph82%29.59 "HgN/A
9:50 PM54 °FPassing clouds.9 mph82%29.59 "HgN/A
9:20 PM54 °FPassing clouds.10 mph82%29.59 "HgN/A
8:50 PM54 °FLight rain. Passing clouds.10 mph82%29.59 "HgN/A
8:20 PM54 °FPartly cloudy.9 mph88%29.62 "HgN/A
7:50 PM54 °FPassing clouds.10 mph88%29.62 "HgN/A
7:20 PM54 °FScattered showers. Partly cloudy.6 mph88%29.62 "HgN/A
6:50 PM52 °FLight rain. Partly sunny.13 mph94%29.62 "HgN/A
6:20 PM52 °FDrizzle. Broken clouds.10 mph94%29.62 "Hg5 mi
5:50 PM52 °FScattered showers. Broken clouds.10 mph94%29.62 "HgN/A
5:20 PM52 °FDrizzle. Broken clouds.13 mph94%29.62 "HgN/A
Weather by CustomWeather, © 2014

See weather overviewHow to use our weather pages